Location: Ash Observatory
(39.7321°N, 75.2004°W)
Time: 20:54:02
(UTC-04:00)

ISS - Pass Details

Date: 25 March 2019
Orbit: 408 x 410 km, 51.6° (Epoch: 21 April)

Event Time Altitude Azimuth Distance (km) Brightness Sun altitude
Rises 19:47:04 0° 250° (WSW) 2,327 1.3 -6.4°
Reaches altitude 10° 19:49:14 10° 259° (W) 1,468 0.4 -6.9°
Maximum altitude 19:52:20 38° 329° (NNW) 646 -2.4 -7.4°
Drops below altitude 10° 19:55:27 10° 39° (NE) 1,473 -1.3 -8.0°
Enters shadow 19:57:24 - 47° (NE) 2,245 -0.4 -8.4°
